Time,TemperatureF,DewpointF,PressureIn,WindDirection,WindDirectionDegrees,WindSpeedMPH,WindSpeedGustMPH,Humidity,HourlyPrecipIn,Conditions,Clouds,dailyrainin,SoftwareType,DateUTC
2013-09-07 00:13:00,75.0,65.0,29.97,South,188,0.0,0.0,71,0.00,,,0.00,,2013-09-07 05:13:00,
2013-09-07 00:23:00,75.0,65.0,29.97,South,188,0.0,0.0,71,0.00,,,0.00,,2013-09-07 05:23:00,
2013-09-07 00:52:00,74.0,65.0,29.96,South,188,0.0,0.0,73,0.00,,,0.00,,2013-09-07 05:52:00,
2013-09-07 01:13:00,73.0,65.0,29.97,South,188,0.0,0.0,75,0.00,,,0.00,,2013-09-07 06:13:00,
2013-09-07 01:21:00,73.0,65.0,29.97,South,188,0.0,0.0,75,0.00,,,0.00,,2013-09-07 06:21:00,
2013-09-07 01:42:00,74.0,65.0,29.97,South,188,0.0,0.0,73,0.00,,,0.00,,2013-09-07 06:42:00,
2013-09-07 01:52:00,74.0,64.0,29.97,South,188,0.0,0.0,72,0.00,,,0.00,,2013-09-07 06:52:00,
2013-09-07 02:12:00,74.0,64.0,29.97,South,188,0.0,0.0,71,0.00,,,0.00,,2013-09-07 07:12:00,
2013-09-07 02:22:00,74.0,64.0,29.97,South,188,0.0,0.0,72,0.00,,,0.00,,2013-09-07 07:22:00,
2013-09-07 02:52:00,73.0,64.0,29.96,South,188,0.0,0.0,73,0.00,,,0.00,,2013-09-07 07:52:00,
2013-09-07 03:12:00,73.0,65.0,29.96,South,188,0.0,0.0,75,0.00,,,0.00,,2013-09-07 08:12:00,
2013-09-07 03:22:00,72.0,64.0,29.96,South,188,0.0,0.0,76,0.00,,,0.00,,2013-09-07 08:22:00,
2013-09-07 03:53:00,72.0,65.0,29.96,South,188,0.0,0.0,78,0.00,,,0.00,,2013-09-07 08:53:00,
2013-09-07 04:12:00,71.0,65.0,29.96,South,188,0.0,0.0,80,0.00,,,0.00,,2013-09-07 09:12:00,
2013-09-07 04:21:00,71.0,65.0,29.96,South,188,0.0,0.0,81,0.00,,,0.00,,2013-09-07 09:21:00,
2013-09-07 04:52:00,72.0,65.0,29.96,South,188,0.0,0.0,80,0.00,,,0.00,,2013-09-07 09:52:00,
2013-09-07 05:11:00,71.0,65.0,29.96,South,188,0.0,0.0,80,0.00,,,0.00,,2013-09-07 10:11:00,
2013-09-07 05:21:00,72.0,65.0,29.96,South,188,0.0,0.0,79,0.00,,,0.00,,2013-09-07 10:21:00,
2013-09-07 05:51:00,72.0,65.0,29.96,South,188,0.0,0.0,79,0.00,,,0.00,,2013-09-07 10:51:00,
2013-09-07 06:13:00,72.0,65.0,29.97,South,188,0.0,0.0,79,0.00,,,0.00,,2013-09-07 11:13:00,
2013-09-07 06:23:00,72.0,65.0,29.97,South,188,0.0,0.0,79,0.00,,,0.00,,2013-09-07 11:23:00,
2013-09-07 06:52:00,72.0,65.0,29.96,South,188,0.0,0.0,78,0.00,,,0.00,,2013-09-07 11:52:00,
2013-09-07 07:12:00,73.0,65.0,29.97,South,188,0.0,0.0,77,0.00,,,0.00,,2013-09-07 12:12:00,
2013-09-07 07:22:00,72.0,64.0,29.97,South,188,0.0,0.0,77,0.00,,,0.00,,2013-09-07 12:22:00,
2013-09-07 07:52:00,72.0,64.0,29.95,South,188,0.0,0.0,77,0.00,,,0.00,,2013-09-07 12:52:00,
2013-09-07 08:12:00,73.0,65.0,29.95,South,188,0.0,0.0,77,0.00,,,0.00,,2013-09-07 13:12:00,
2013-09-07 08:21:00,73.0,65.0,29.95,South,188,0.0,0.0,75,0.00,,,0.00,,2013-09-07 13:21:00,
2013-09-07 08:52:00,75.0,66.0,29.95,South,188,4.0,4.0,73,0.00,,,0.00,,2013-09-07 13:52:00,
2013-09-07 09:11:00,76.0,66.0,29.95,SSW,195,0.0,0.0,71,0.00,,,0.00,,2013-09-07 14:11:00,
2013-09-07 09:22:00,77.0,66.0,29.95,SSE,163,4.0,4.0,68,0.00,,,0.00,,2013-09-07 14:22:00,
2013-09-07 09:52:00,79.0,65.0,29.94,South,174,5.0,5.0,62,0.00,,,0.00,,2013-09-07 14:52:00,
2013-09-07 10:02:00,79.0,65.0,29.94,South,174,5.0,5.0,62,0.00,,,0.00,,2013-09-07 15:02:00,
2013-09-07 10:11:00,79.0,65.0,29.94,South,174,5.0,5.0,62,0.00,,,0.00,,2013-09-07 15:11:00,
2013-09-07 10:23:00,82.0,66.0,29.96,South,188,0.0,0.0,59,0.00,,,0.00,,2013-09-07 15:23:00,
2013-09-07 10:54:00,84.0,66.0,29.96,SSW,193,5.0,5.0,55,0.00,,,0.00,,2013-09-07 15:54:00,
2013-09-07 11:24:00,86.0,66.0,29.96,SSW,213,0.0,0.0,51,0.00,,,0.00,,2013-09-07 16:24:00,
2013-09-07 11:53:00,88.0,66.0,29.95,South,188,2.0,2.0,48,0.00,,,0.00,,2013-09-07 16:53:00,
2013-09-07 12:24:00,89.0,66.0,29.95,South,190,5.0,5.0,47,0.00,,,0.00,,2013-09-07 17:24:00,
2013-09-07 12:43:00,90.0,67.0,29.94,South,186,9.0,9.0,47,0.00,,,0.00,,2013-09-07 17:43:00,
2013-09-07 12:52:00,90.0,67.0,29.94,SSW,192,7.0,7.0,47,0.00,,,0.00,,2013-09-07 17:52:00,
2013-09-07 13:13:00,91.0,67.0,29.93,South,178,0.0,0.0,45,0.00,,,0.00,,2013-09-07 18:13:00,
2013-09-07 13:22:00,92.0,66.0,29.93,South,169,4.0,4.0,42,0.00,,,0.00,,2013-09-07 18:22:00,
2013-09-07 13:52:00,93.0,66.0,29.91,South,173,6.0,6.0,41,0.00,,,0.00,,2013-09-07 18:52:00,
2013-09-07 14:11:00,94.0,67.0,29.90,SSE,167,2.0,2.0,41,0.00,,,0.00,,2013-09-07 19:11:00,
2013-09-07 14:22:00,95.0,68.0,29.90,South,185,0.0,0.0,41,0.00,,,0.00,,2013-09-07 19:22:00,
2013-09-07 14:52:00,96.0,65.0,29.89,South,190,3.0,3.0,37,0.00,,,0.00,,2013-09-07 19:52:00,
2013-09-07 15:22:00,97.0,65.0,29.88,South,169,0.0,0.0,35,0.00,,,0.00,,2013-09-07 20:22:00,
2013-09-07 15:53:00,98.0,64.0,29.87,South,190,0.0,0.0,33,0.00,,,0.00,,2013-09-07 20:53:00,
2013-09-07 16:22:00,98.0,65.0,29.87,SSW,192,2.0,2.0,34,0.00,,,0.00,,2013-09-07 21:22:00,
2013-09-07 16:54:00,99.0,66.0,29.87,South,175,0.0,0.0,35,0.00,,,0.00,,2013-09-07 21:54:00,
2013-09-07 17:24:00,99.0,64.0,29.86,South,190,2.0,2.0,32,0.00,,,0.00,,2013-09-07 22:24:00,
2013-09-07 17:53:00,98.0,65.0,29.86,SSW,192,0.0,0.0,34,0.00,,,0.00,,2013-09-07 22:53:00,
2013-09-07 18:23:00,97.0,66.0,29.86,South,185,0.0,0.0,36,0.00,,,0.00,,2013-09-07 23:23:00,
2013-09-07 18:52:00,95.0,65.0,29.86,South,184,1.0,1.0,38,0.00,,,0.00,,2013-09-07 23:52:00,
2013-09-07 19:11:00,95.0,67.0,29.86,South,185,0.0,0.0,40,0.00,,,0.00,,2013-09-08 00:11:00,
2013-09-07 19:22:00,93.0,68.0,29.86,South,184,0.0,0.0,45,0.00,,,0.00,,2013-09-08 00:22:00,
2013-09-07 19:42:00,91.0,70.0,29.86,South,184,0.0,0.0,50,0.00,,,0.00,,2013-09-08 00:42:00,
2013-09-07 19:52:00,90.0,70.0,29.85,South,184,1.0,1.0,52,0.00,,,0.00,,2013-09-08 00:52:00,
2013-09-07 20:11:00,90.0,70.0,29.85,South,184,0.0,0.0,52,0.00,,,0.00,,2013-09-08 01:11:00,
2013-09-07 20:22:00,90.0,69.0,29.84,South,183,3.0,3.0,50,0.00,,,0.00,,2013-09-08 01:22:00,
2013-09-07 20:42:00,89.0,68.0,29.84,South,183,0.0,0.0,50,0.00,,,0.00,,2013-09-08 01:42:00,
2013-09-07 20:52:00,89.0,68.0,29.84,South,180,6.0,6.0,51,0.00,,,0.00,,2013-09-08 01:52:00,
2013-09-07 21:12:00,89.0,68.0,29.84,South,180,0.0,0.0,51,0.00,,,0.00,,2013-09-08 02:12:00,
2013-09-07 21:23:00,89.0,68.0,29.84,South,188,0.0,0.0,50,0.00,,,0.00,,2013-09-08 02:23:00,
2013-09-07 21:43:00,88.0,68.0,29.85,South,185,0.0,0.0,52,0.00,,,0.00,,2013-09-08 02:43:00,
2013-09-07 21:52:00,87.0,69.0,29.85,South,185,0.0,0.0,55,0.00,,,0.00,,2013-09-08 02:52:00,
2013-09-07 22:23:00,86.0,68.0,29.85,South,185,0.0,0.0,55,0.00,,,0.00,,2013-09-08 03:23:00,
2013-09-07 22:54:00,86.0,68.0,29.86,South,184,0.0,0.0,56,0.00,,,0.00,,2013-09-08 03:54:00,
2013-09-07 23:02:00,-999.0,-99.9,29.86,South,184,0.0,0.0,-999,-99.99,,,-99.99,,2013-09-08 04:02:00,
2013-09-07 23:24:00,84.0,70.0,29.86,South,184,0.0,0.0,62,0.00,,,0.00,,2013-09-08 04:24:00,
2013-09-07 23:34:00,84.0,70.0,29.86,South,184,0.0,0.0,62,0.00,,,0.00,,2013-09-08 04:34:00,
2013-09-07 23:53:00,82.0,69.0,29.87,South,184,0.0,0.0,65,0.00,,,0.00,,2013-09-08 04:53:00,